Regional Weather Roundup
Issued by NWS

Home | Current Version | Previous Version | Text Only | Print | Product List | Glossary On
Versions: 1 2 3 4 5 6 7 8 9 10 11 12 13 14 15 16 17 18 19 20 21 22 23 24 25 26 27 28 29 30 31 32 33 34 35 36 37 38 39 40 41 42 43 44 45 46 47 48 49 50
000
ASUS45 KABQ 220810
RWRNM
NEW MEXICO REGIONAL WEATHER ROUNDUP
NATIONAL WEATHER SERVICE ALBUQUERQUE NM
200 AM MDT TUE AUG 22 2017

NOTE: "FAIR" MEANS FEW OR NO CLOUDS BELOW 12,000 FEET AGL WITH NO
       SIGNIFICANT WEATHER OR OBSTRUCTIONS TO VISION.

      THIS PRODUCT IS RELEASED AS TWO VERSIONS.  ONE VERSION NEAR
      THE TOP OF THE HOUR CONTAINING PRELIMINARY DATA FROM ALBUQUERQUE
      AND OTHER STATIONS.  A FINAL VERSION WITH ADDITIONAL DATA IS
      ISSUED ABOUT 10 MINUTES AFTER THE HOUR.

NMZ501-503-504-510>518-220900-
NORTHWEST PLATEAU/NORTHCENTRAL MOUNTAINS

CITY           SKY/WX    TMP DP  RH WIND       PRES   REMARKS
FARMINGTON     MOCLDY    66  54  65 SE8       30.27S
LOS ALAMOS     MOCLDY    62  46  57 N8        30.40S
SANTA FE       FAIR      60  55  83 N14       30.34S
TAOS           MOCLDY    56  53  90 S3        30.43S
ANGEL FIRE     FAIR      47  46  95 CALM      30.49S

$$
NMZ402-403-502-505>509-220900-
WESTCENTRAL MOUNTAINS/SOUTHWEST MOUNTAINS

CITY           SKY/WX    TMP DP  RH WIND       PRES   REMARKS
GALLUP         FAIR      64  48  56 NE9       30.33F
GRANTS         MOCLDY    62  49  63 W8        30.35S
SILVER CITY    MOCLDY    60  55  84 CALM      30.25S

$$
NMZ407-409-411-412-220900-
SOUTHERN DESERTS

CITY           SKY/WX    TMP DP  RH WIND       PRES   REMARKS
DEMING         FAIR      69  63  81 CALM      30.17S
LAS CRUCES     FAIR      70  64  81 S3        30.18F
HOLLOMAN AFB   FAIR      68  62  79 NE7       30.17S
ALAMOGORDO     FAIR      70  59  68 NE8       30.17S
T OR C         FAIR      70  58  65 E3        30.20S

$$
NMZ519>523-220900-
CENTRAL VALLEYS/CENTRAL HIGHLANDS

CITY           SKY/WX    TMP DP  RH WIND       PRES   REMARKS
ALBUQUERQUE    MOCLDY    71  52  50 N10       30.26F
MORIARTY ARPT  CLOUDY    62  57  84 N7        30.34S
CLINES CORNERS CLOUDY    60  52  74 NE9       30.37S
BELEN          MOCLDY    68  55  63 N8        30.25R
SOCORRO        CLOUDY    68  58  72 S6        30.21S

$$
NMZ524>526-539-540-220900-
SOUTHCENTRAL MOUNTAINS

CITY           SKY/WX    TMP DP  RH WIND       PRES   REMARKS
RUIDOSO        FAIR      59  54  82 CALM      30.37S

$$
NMZ527>531-220900-
NORTHEAST HIGHLANDS/NORTHEAST PLAINS

CITY           SKY/WX    TMP DP  RH WIND       PRES   REMARKS
LAS VEGAS      FAIR      55  51  86 NW8       30.37S
RATON          CLOUDY    63  50  62 N15       30.30S
CLAYTON        MOCLDY    69  54  58 NW5       30.20S

$$
NMZ532>537-220900-
EASTCENTRAL PLAINS

CITY           SKY/WX    TMP DP  RH WIND       PRES   REMARKS
SANTA ROSA     CLOUDY    65  62  89 NE7       30.23R
TUCUMCARI      FAIR      70  65  84 W5        30.16R
CANNON AFB     FAIR      66  66 100 CALM      30.20S
CLOVIS AIRPORT FAIR      66  63  90 CALM      30.20S

$$
NMZ028-029-538-220900-
SOUTHEAST PLAINS

CITY           SKY/WX    TMP DP  RH WIND       PRES   REMARKS
ROSWELL        FAIR      71  65  81 E5        30.14S
ARTESIA        FAIR      70  70 100 SW6       30.14S
CARLSBAD       FAIR      70  69  97 SE7       30.10F
HOBBS          FAIR      68  66  94 SW5       30.16S


$$




USA.gov is the U.S. government's official web portal to all federal, state and local government web resources and services.